Weather History for Townsville Amo, Queensland

Change the Weather History Date:

Thursday, December 12, 2013

  Actual Average Record
Temperature  
Mean Temperature 82 °F -  
Max Temperature 89 °F 89 °F - ()
Min Temperature 76 °F 75 °F - ()
Cooling Degree Days 18    
Growing Degree Days 32 (Base 50)    
Moisture  
Dew Point 68 °F    
Average Humidity 60    
Maximum Humidity 78    
Minimum Humidity 33    
Precipitation  
Precipitation 0.00 in 0.24 in - ()
Sea Level Pressure  
Sea Level Pressure 29.74 in    
Wind  
Wind Speed 8 mph ()    
Max Wind Speed 18 mph    
Max Gust Speed -    
Visibility 6.6 miles    
Events Rain    
T = Trace of Precipitation, MM = Missing Value Source: Averaged Metar Reports

Daily Weather History Graph

Daily Weather History Graph

Search for Another Location

Airport:

Trip Planner

Search our weather history database for the weather conditions in past years. The results will help you decide how hot, cold, wet, or windy it might be!

Date:

Astronomy

Dec. 12, 2013 Rise Set
Actual Time 5:28 AM AEST 6:44 PM AEST
Civil Twilight 5:04 AM AEST 7:09 PM AEST
Nautical Twilight 4:35 AM AEST 7:38 PM AEST
Astronomical Twilight 4:05 AM AEST 8:07 PM AEST
Moon 2:19 PM AEST (12/12) 1:30 AM AEST (12/12)
Length of Visible Light 14h 05m
Length of Day
13h 16m
Waxing Gibbous, 75% of the Moon is Illuminated
Dec 12
Waxing Gibbous
Dec 17
Full
Dec 25
Last Quarter
Jan 1
New
Jan 8
First Quarter

Hourly Weather History & Observations

Time (AEST) Temp. Heat Index Dew Point Humidity Pressure Visibility Wind Dir Wind Speed Gust Speed Precip Events Conditions
12:00 AM 78 °F - 68 °F 63% 29.76 in - North 5.8 mph - -  
12:00 AM 78.8 °F - 68.0 °F 69% 29.74 in 6.2 mi North 5.8 mph - N/A   Unknown
12:30 AM 78.8 °F - 68.0 °F 69% 29.74 in 6.2 mi North 6.9 mph - N/A   Unknown
1:00 AM 78 °F - 68 °F 64% 29.76 in - North 6.9 mph - -  
1:00 AM 78.8 °F - 68.0 °F 69% 29.74 in 6.2 mi North 6.9 mph - N/A   Scattered Clouds
1:30 AM 78.8 °F - 68.0 °F 69% 29.74 in 6.2 mi NNE 8.1 mph - N/A   Scattered Clouds
2:00 AM 78.8 °F - 68.0 °F 69% 29.74 in 6.2 mi North 8.1 mph - N/A   Scattered Clouds
2:30 AM 78.8 °F - 68.0 °F 69% 29.74 in 6.2 mi North 8.1 mph - N/A   Scattered Clouds
3:00 AM 79 °F - 68 °F 62% 29.74 in - North 6.9 mph - -  
3:00 AM 78.8 °F - 68.0 °F 69% 29.74 in 6.2 mi North 6.9 mph - N/A   Mostly Cloudy
3:30 AM 78.8 °F - 68.0 °F 69% 29.74 in 6.2 mi North 5.8 mph - N/A   Scattered Clouds
4:00 AM 78 °F - 68 °F 63% 29.75 in - North 5.8 mph - -  
4:00 AM 77.0 °F - 68.0 °F 74% 29.74 in 6.2 mi North 5.8 mph - N/A   Unknown
4:30 AM 78.8 °F - 68.0 °F 69% 29.74 in 6.2 mi North 5.8 mph - N/A   Mostly Cloudy
5:00 AM 77.0 °F - 68.0 °F 74% 29.74 in 6.2 mi North 4.6 mph - N/A   Scattered Clouds
5:30 AM 77.0 °F - 68.0 °F 74% 29.74 in 6.2 mi North 5.8 mph - N/A   Unknown
6:00 AM 78 °F - 67 °F 62% 29.76 in 22 mi North 4.6 mph - -   Haze
6:00 AM 77.0 °F - 68.0 °F 74% 29.74 in 6.2 mi North 4.6 mph - N/A   Scattered Clouds
6:30 AM 80.6 °F 83.2 °F 68.0 °F 65% 29.74 in 6.2 mi North 6.9 mph - N/A   Scattered Clouds
7:00 AM 82 °F - 68 °F 53% 29.78 in - North 8.1 mph - -  
7:00 AM 82.4 °F 85.4 °F 68.0 °F 62% 29.77 in 6.2 mi North 8.1 mph - N/A   Scattered Clouds
7:30 AM 82.4 °F 85.4 °F 68.0 °F 62% 29.77 in 6.2 mi North 10.4 mph - N/A   Scattered Clouds
8:00 AM 82.4 °F 85.4 °F 68.0 °F 62% 29.77 in 6.2 mi North 11.5 mph - N/A   Scattered Clouds
8:30 AM 82.4 °F 85.4 °F 68.0 °F 62% 29.77 in 6.2 mi NNW 10.4 mph - N/A   Scattered Clouds
9:00 AM 85 °F - 66 °F 43% 29.78 in 22 mi North 10.4 mph - -   Haze
9:00 AM 86.0 °F 88.2 °F 66.2 °F 51% 29.77 in 6.2 mi North 10.4 mph - N/A   Scattered Clouds
10:00 AM 87 °F - 65 °F 38% 29.79 in - North 10.4 mph - -  
10:00 AM 87.8 °F 89.4 °F 64.4 °F 46% 29.77 in 6.2 mi North 10.4 mph - N/A   Scattered Clouds
10:30 AM 84.2 °F 86.6 °F 66.2 °F 55% 29.77 in 6.2 mi North 9.2 mph - N/A   Scattered Clouds
11:00 AM 86.0 °F 87.3 °F 64.4 °F 48% 29.77 in 6.2 mi NNE 8.1 mph - N/A   Partly Cloudy
11:30 AM 86.0 °F 88.2 °F 66.2 °F 51% 29.74 in 6.2 mi NE 12.7 mph - N/A   Partly Cloudy
12:00 PM 87 °F - 64 °F 36% 29.74 in 25 mi North 8.1 mph - -   Partly Cloudy
12:00 PM 87.8 °F 89.4 °F 64.4 °F 46% 29.74 in 6.2 mi North 8.1 mph - N/A   Partly Cloudy
12:30 PM 87.8 °F 89.4 °F 64.4 °F 46% 29.71 in 6.2 mi NE 12.7 mph - N/A   Partly Cloudy
1:00 PM 89 °F - 64 °F 33% 29.73 in - NE 10.4 mph - -  
1:00 PM 89.6 °F 91.1 °F 64.4 °F 43% 29.71 in 6.2 mi NE 10.4 mph - N/A   Partly Cloudy
1:30 PM 87.8 °F 90.4 °F 66.2 °F 49% 29.71 in 6.2 mi NNE 11.5 mph - N/A   Partly Cloudy
2:00 PM 87.8 °F 89.4 °F 64.4 °F 46% 29.71 in 6.2 mi NE 9.2 mph - N/A   Mostly Cloudy
2:30 PM 87.8 °F 89.4 °F 64.4 °F 46% 29.71 in 6.2 mi NNE 12.7 mph - N/A   Mostly Cloudy
3:00 PM 89 °F - 65 °F 35% 29.70 in - NNE 10.4 mph - -  
3:00 PM 87.8 °F 89.4 °F 64.4 °F 46% 29.68 in 6.2 mi NNE 10.4 mph - N/A   Mostly Cloudy
3:30 PM 86.0 °F 89.4 °F 68.0 °F 55% 29.68 in 6.2 mi ENE 16.1 mph - N/A   Mostly Cloudy
4:00 PM 86 °F - 68 °F 45% 29.70 in - ENE 17.3 mph - -  
4:00 PM 86.0 °F 89.4 °F 68.0 °F 55% 29.68 in 6.2 mi ENE 17.3 mph - N/A   Partly Cloudy
4:30 PM 86.0 °F 90.4 °F 69.8 °F 58% 29.68 in 6.2 mi ENE 18.4 mph - N/A   Partly Cloudy
5:00 PM 84.2 °F 87.3 °F 68.0 °F 58% 29.68 in 6.2 mi ENE 16.1 mph - N/A   Partly Cloudy
5:30 PM 84.2 °F 88.4 °F 69.8 °F 62% 29.68 in 6.2 mi ENE 17.3 mph - N/A   Partly Cloudy
6:00 PM 82 °F - 69 °F 58% 29.71 in 19 mi ENE 13.8 mph - -   Haze
6:00 PM 82.4 °F 86.3 °F 69.8 °F 66% 29.71 in 6.2 mi ENE 13.8 mph - N/A   Partly Cloudy
6:30 PM 82.4 °F 85.4 °F 68.0 °F 62% 29.71 in 6.2 mi NE 12.7 mph - N/A   Partly Cloudy
7:00 PM 81 °F - 69 °F 59% 29.77 in - NNE 9.2 mph - -  
7:00 PM 80.6 °F 83.9 °F 69.8 °F 70% 29.74 in 6.2 mi NNE 9.2 mph - N/A   Scattered Clouds
7:30 PM 80.6 °F 83.2 °F 68.0 °F 65% 29.74 in 6.2 mi NE 9.2 mph - N/A   Scattered Clouds
8:00 PM 80.6 °F 83.9 °F 69.8 °F 70% 29.77 in 6.2 mi North 8.1 mph - N/A   Mostly Cloudy
8:30 PM 80.6 °F 83.9 °F 69.8 °F 70% 29.77 in 6.2 mi North 5.8 mph - N/A   Mostly Cloudy
9:00 PM 81 °F - 70 °F 61% 29.81 in 12 mi North 9.2 mph - - Rain Light Rain
9:00 PM 80.6 °F 83.9 °F 69.8 °F 70% 29.80 in 6.2 mi North 9.2 mph - N/A Rain Light Rain
9:30 PM 80.6 °F 84.6 °F 71.6 °F 74% 29.77 in 6.2 mi NNE 8.1 mph - N/A Rain Light Rain
10:00 PM 79 °F - 72 °F 73% 29.80 in - North 5.8 mph - -  
10:00 PM 78.8 °F - 71.6 °F 78% 29.77 in 6.2 mi North 5.8 mph - N/A Rain Light Rain Showers
10:30 PM 80.6 °F 83.9 °F 69.8 °F 70% 29.77 in 6.2 mi North 5.8 mph - N/A   Mostly Cloudy
11:00 PM 80.6 °F 84.6 °F 71.6 °F 74% 29.80 in 6.2 mi North 4.6 mph - N/A   Unknown
11:30 PM 80.6 °F 84.6 °F 71.6 °F 74% 29.80 in 6.2 mi NNE 5.8 mph - N/A   Scattered Clouds